This is the latest recevied weather packets stored in our database for station/object K1KOF. If no packets are shown the sender has not sent any weather packets the latest 10 day(s).
| Time | Temp. | Humidity | Pressure | Rain* | Wind** | Luminosity | Snow |
|---|---|---|---|---|---|---|---|
| 1778177900 | 23.89° C | 83% | 1019.7 hPa | 0 mm | - | 261 W/m² | - |
| 1778177596 | 25° C | 82% | 1019.4 hPa | 0 mm | - | 688 W/m² | - |
| 1778177294 | 24.44° C | 83% | 1019.6 hPa | 0 mm | - | 847 W/m² | - |
| 1778176991 | 23.33° C | 85% | 1019.7 hPa | 0 mm | - | 829 W/m² | - |
| 1778176686 | 23.33° C | 90% | 1019.9 hPa | 0 mm | - | 718 W/m² | - |
| 1778176383 | 23.33° C | 87% | 1019.7 hPa | 0 mm | - | 849 W/m² | - |
| 1778176080 | 22.22° C | 91% | 1019.6 hPa | 0 mm | - | 776 W/m² | - |
| 1778175778 | 22.78° C | 90% | 1020 hPa | 0 mm | - | 235 W/m² | - |
| 1778175476 | 23.33° C | 89% | 1020 hPa | 0 mm | - | 806 W/m² | - |
| 1778175173 | 22.78° C | 94% | 1019.8 hPa | 0 mm | - | 686 W/m² | - |
| 1778174869 | 22.22° C | 93% | 1019.8 hPa | 0 mm | - | 307 W/m² | - |
| 1778174566 | 22.22° C | 94% | 1019.9 hPa | 0 mm | - | 137 W/m² | - |
| 1778174261 | 22.22° C | 95% | 1019.7 hPa | 0 mm | - | 202 W/m² | - |
| 1778173959 | 21.11° C | 97% | 1019.7 hPa | 0 mm | - | 396 W/m² | - |
| 1778173655 | 21.11° C | 99% | 1019.3 hPa | 0 mm | - | 379 W/m² | - |
| 1778173352 | 20.56° C | 99% | 1019.5 hPa | 0 mm | - | 239 W/m² | - |
| 1778173048 | 20.56° C | 99% | 1019.9 hPa | 0 mm | - | 410 W/m² | - |
| 1778172745 | 20.56° C | 99% | 1019.7 hPa | 0 mm | - | 388 W/m² | - |
| 1778172440 | 21.11° C | 99% | 1020 hPa | 0 mm | - | 351 W/m² | - |
| 1778172137 | 20° C | 99% | 1020.1 hPa | 0 mm | - | 317 W/m² | - |
| 1778171835 | 20° C | 99% | 1020.1 hPa | 0 mm | - | 236 W/m² | - |
| 1778171533 | 20° C | 99% | 1020.2 hPa | 0 mm | - | 273 W/m² | - |
| 1778171228 | 20° C | 99% | 1020.4 hPa | 0 mm | - | 247 W/m² | - |
| 1778170924 | 20° C | 99% | 1020.5 hPa | 0 mm | - | 309 W/m² | - |
| 1778170621 | 19.44° C | 99% | 1020.6 hPa | 0 mm | - | 285 W/m² | - |
* Rain latest hour (hover to see other rain measurements)
** Current wind speed in m/s (hover to see current wind gust speed)